Location: Kernascl�den
(48.0062°N, 3.3198°W)
Time: 21:50:52
(UTC+00:00)

CZ-2D R/B - Pass Details

Date: 21 January 2021
Orbit: 521 x 537 km, 97.4° (Epoch: 03 March)

Event Time Altitude Azimuth Distance (km) Brightness Sun altitude
Rises 18:14:33 0° 162° (SSE) 2,672 6.8 -12.9°
Reaches altitude 10° 18:16:40 10° 161° (SSE) 1,784 5.9 -13.2°
Maximum altitude 18:20:30 77° 76° (ENE) 553 3.1 -13.8°
Drops below altitude 10° 18:24:22 10° 350° (N) 1,790 5.9 -14.5°
Sets 18:26:29 0° 349° (N) 2,682 6.8 -14.8°
